Flagstaff, AZ

10:32 PM MST on April 26, 2017 (GMT -0700)
Flagstaff Pulliam

Weather History for KFLG - July, 2013

Change the Weather History Date:

Thursday, July 18, 2013

  Actual Average Record
Temperature  
Mean Temperature 66 °F 67 °F  
Max Temperature 80 °F 81 °F 93 °F (1989)
Min Temperature 52 °F 52 °F 42 °F (1940)
Degree Days  
Heating Degree Days 0 1  
Month to date heating degree days 5 23  
Since 1 July heating degree days 5 23  
Cooling Degree Days 1 2  
Month to date cooling degree days 62 36  
Year to date cooling degree days 112 53  
Growing Degree Days 16 (Base 50)    
Moisture  
Dew Point 53 °F    
Average Humidity 69    
Maximum Humidity 100    
Minimum Humidity 37    
Precipitation  
Precipitation 0.00 in 0.09 in 1.27 in (2010)
Month to date precipitation 3.96 1.20  
Year to date precipitation 9.22 9.67  
Snow  
Snow 0.00 in 0.00 in 0.00 in (2002)
Month to date snowfall 0.0  
Since 1 July snowfall 0.0 0.0  
Snow Depth 0.00 in    
Sea Level Pressure  
Sea Level Pressure 30.03 in    
Wind  
Wind Speed 4 mph (North)    
Max Wind Speed 16 mph    
Max Gust Speed 24 mph    
Visibility 10 miles    
Events      
T = Trace of Precipitation, MM = Missing Value Source: NWS Daily Summary

Daily Weather History Graph

Daily Weather History Graph

Search for Another Location

Airport or City:

Trip Planner

Search our weather history database for the weather conditions in past years. The results will help you decide how hot, cold, wet, or windy it might be!

Date:

Astronomy

Jul. 18, 2013 Rise Set
Actual Time 5:25 AM MST 7:39 PM MST
Civil Twilight 4:57 AM MST 8:08 PM MST
Nautical Twilight 4:21 AM MST 8:43 PM MST
Astronomical Twilight 3:43 AM MST 9:21 PM MST
Moon 3:41 PM MST (7/18) 1:17 AM MST (7/18)
Length of Visible Light 15h 11m
Length of Day
14h 13m
Waxing Gibbous, 78% of the Moon is Illuminated
Jul 18
Waxing Gibbous
Jul 22
Full
Jul 29
Last Quarter
Aug 6
New
Aug 14
First Quarter

Hourly Weather History & Observations

Time (MST) Temp. Dew Point Humidity Pressure Visibility Wind Dir Wind Speed Gust Speed Precip Events Conditions
12:57 AM 57.9 °F 55.9 °F 93% 30.11 in 10.0 mi Calm Calm - N/A   Clear
1:57 AM 57.0 °F 55.0 °F 93% 30.06 in 10.0 mi Calm Calm - N/A   Clear
2:57 AM 55.0 °F 54.0 °F 96% 30.08 in 9.0 mi Calm Calm - N/A   Clear
3:57 AM 54.0 °F 53.1 °F 97% 30.09 in 10.0 mi Calm Calm - N/A   Clear
4:57 AM 53.1 °F 51.1 °F 93% 30.08 in 10.0 mi Calm Calm - N/A   Clear
5:57 AM 53.1 °F 52.0 °F 96% 30.09 in 10.0 mi Calm Calm - N/A   Clear
6:57 AM 60.1 °F 54.0 °F 80% 30.09 in 10.0 mi Calm Calm - N/A   Clear
7:57 AM 66.0 °F 55.9 °F 70% 30.08 in 10.0 mi Calm Calm - N/A   Mostly Cloudy
8:57 AM 70.0 °F 54.0 °F 57% 30.07 in 10.0 mi Calm Calm - N/A   Mostly Cloudy
9:57 AM 73.0 °F 53.1 °F 49% 30.05 in 10.0 mi Variable 4.6 mph - N/A   Partly Cloudy
10:57 AM 75.9 °F 53.1 °F 45% 30.04 in 10.0 mi NE 8.1 mph - N/A   Scattered Clouds
11:57 AM 75.9 °F 52.0 °F 43% 30.02 in 10.0 mi East 5.8 mph - N/A   Scattered Clouds
12:57 PM 78.1 °F 53.1 °F 42% 30.00 in 10.0 mi East 9.2 mph - N/A   Mostly Cloudy
1:57 PM 78.1 °F 50.0 °F 37% 29.99 in 10.0 mi East 11.5 mph 18.4 mph N/A   Mostly Cloudy
2:57 PM 72.0 °F 55.9 °F 57% 30.01 in 10.0 mi WSW 6.9 mph - N/A   Mostly Cloudy
3:57 PM 73.0 °F 55.0 °F 53% 29.99 in 10.0 mi NNW 5.8 mph - N/A   Partly Cloudy
4:57 PM 73.0 °F 55.9 °F 55% 29.99 in 10.0 mi WNW 8.1 mph 16.1 mph N/A   Partly Cloudy
5:57 PM 70.0 °F 55.0 °F 59% 30.00 in 10.0 mi Variable 3.5 mph - N/A   Scattered Clouds
6:57 PM 68.0 °F 50.0 °F 52% 30.00 in 10.0 mi NNW 10.4 mph 24.2 mph N/A   Overcast
7:57 PM 66.0 °F 51.1 °F 59% 29.99 in 10.0 mi WNW 8.1 mph - N/A   Mostly Cloudy
8:57 PM 64.9 °F 53.1 °F 65% 29.99 in 10.0 mi WNW 6.9 mph - N/A   Partly Cloudy
9:57 PM 64.9 °F 53.1 °F 65% 29.97 in 10.0 mi Calm Calm - N/A   Clear
10:57 PM 61.0 °F 54.0 °F 78% 29.99 in 10.0 mi Calm Calm - N/A   Clear
11:57 PM 63.0 °F 50.0 °F 63% 29.98 in 10.0 mi East 8.1 mph - N/A   Clear